Weather History for KBML - May, 2013

Change the Weather History Date:

Friday, May 31, 2013

  Actual Average Record
Temperature  
Mean Temperature 70 °F -  
Max Temperature 90 °F 65 °F 90 °F (2013)
Min Temperature 50 °F 38 °F 27 °F (2004)
Cooling Degree Days 4    
Growing Degree Days 20 (Base 50)    
Moisture  
Dew Point 56 °F    
Average Humidity 77    
Maximum Humidity 100    
Minimum Humidity 38    
Precipitation  
Precipitation 0.00 in - - ()
Sea Level Pressure  
Sea Level Pressure 30.03 in    
Wind  
Wind Speed 1 mph (West)    
Max Wind Speed 9 mph    
Max Gust Speed 18 mph    
Visibility 6 miles    
Events Fog , Thunderstorm    
Averages and records for this station are not official NWS values.
T = Trace of Precipitation, MM = Missing Value Source: NWS Daily Summary

Daily Weather History Graph

Daily Weather History Graph

Search for Another Location

Airport or City:

Trip Planner

Search our weather history database for the weather conditions in past years. The results will help you decide how hot, cold, wet, or windy it might be!

Date:

Astronomy

May. 31, 2013 Rise Set
Actual Time 5:03 AM EDT 8:22 PM EDT
Civil Twilight 4:27 AM EDT 8:58 PM EDT
Nautical Twilight 3:40 AM EDT 9:44 PM EDT
Astronomical Twilight 2:43 AM EDT 10:43 PM EDT
Moon 12:43 AM EDT (5/31) 12:27 PM EDT (5/31)
Length of Visible Light 16h 30m
Length of Day
15h 18m
Waning Gibbous, 51% of the Moon is Illuminated
May 31
Waning Gibbous
May 31
Last Quarter
Jun 8
New
Jun 16
First Quarter
Jun 23
Full

Hourly Weather History & Observations

Time (EDT) Temp. Heat Index Dew Point Humidity Pressure Visibility Wind Dir Wind Speed Gust Speed Precip Events Conditions
12:52 AM 55.0 °F - 54.0 °F 96% 30.08 in 8.0 mi Calm Calm - N/A   Clear
1:52 AM 52.0 °F - 51.1 °F 97% 30.07 in 7.0 mi Calm Calm - N/A   Clear
2:21 AM 51.8 °F - 50.0 °F 94% 30.07 in 8.0 mi Calm Calm - N/A   Scattered Clouds
2:45 AM 51.8 °F - 48.2 °F 88% 30.07 in 2.0 mi Calm Calm - N/A   Mostly Cloudy
2:47 AM 51.8 °F - 48.2 °F 88% 30.07 in 1.0 mi Calm Calm - N/A   Mist
2:52 AM 52.0 °F - 50.0 °F 93% 30.07 in 0.5 mi Calm Calm - N/A Fog Fog
3:07 AM 51.8 °F - 51.8 °F 100% 30.07 in 0.2 mi Calm Calm - N/A Fog Fog
3:27 AM 51.8 °F - 51.8 °F 100% 30.07 in 0.5 mi Calm Calm - N/A Fog Fog
3:48 AM 51.8 °F - 50.0 °F 94% 30.08 in 0.2 mi Calm Calm - N/A Fog Fog
3:52 AM 51.1 °F - 50.0 °F 96% 30.07 in 0.2 mi Calm Calm - N/A Fog Fog
4:36 AM 50.0 °F - 48.2 °F 94% 30.08 in 1.0 mi Calm Calm - N/A   Mist
4:38 AM 51.8 °F - 48.2 °F 88% 30.08 in 2.5 mi Calm Calm - N/A   Overcast
4:47 AM 51.8 °F - 51.8 °F 100% 30.08 in 1.0 mi Calm Calm - N/A   Mist
4:52 AM 50.0 °F - 50.0 °F 100% 30.08 in 0.8 mi Calm Calm - N/A   Mist
4:59 AM 50.0 °F - 48.2 °F 94% 30.08 in 1.8 mi Calm Calm - N/A   Overcast
5:12 AM 50.0 °F - 50.0 °F 100% 30.08 in 4.0 mi Calm Calm - N/A   Mostly Cloudy
5:28 AM 51.8 °F - 50.0 °F 94% 30.08 in 2.5 mi Calm Calm - N/A   Mostly Cloudy
5:38 AM 51.8 °F - 50.0 °F 94% 30.08 in 6.0 mi Calm Calm - N/A   Scattered Clouds
5:52 AM 52.0 °F - 51.1 °F 97% 30.08 in 7.0 mi Calm Calm - N/A   Partly Cloudy
6:52 AM 57.0 °F - 55.0 °F 93% 30.09 in 7.0 mi Calm Calm - N/A   Clear
7:52 AM 64.9 °F - 60.1 °F 84% 30.08 in 10.0 mi Calm Calm - N/A   Clear
8:52 AM 73.9 °F - 62.1 °F 66% 30.07 in 10.0 mi Calm Calm - N/A   Clear
9:52 AM 80.1 °F 81.5 °F 63.0 °F 56% 30.05 in 10.0 mi Variable 3.5 mph - N/A   Clear
10:52 AM 82.9 °F 84.0 °F 63.0 °F 51% 30.04 in 10.0 mi WSW 6.9 mph - N/A   Clear
11:52 AM 84.9 °F 85.9 °F 63.0 °F 48% 30.02 in 10.0 mi NW 9.2 mph 18.4 mph N/A   Clear
12:52 PM 87.1 °F 87.8 °F 63.0 °F 44% 30.01 in 10.0 mi Variable 5.8 mph - N/A   Scattered Clouds
1:16 PM 84.2 °F 85.0 °F 62.6 °F 48% 30.02 in 10.0 mi Variable 5.8 mph 16.1 mph N/A Thunderstorm Thunderstorm
1:34 PM 84.2 °F 85.0 °F 62.6 °F 48% 30.01 in 10.0 mi Variable 4.6 mph - N/A   Mostly Cloudy
1:52 PM 86.0 °F 87.6 °F 64.9 °F 49% 30.00 in 10.0 mi Variable 3.5 mph - N/A   Scattered Clouds
2:52 PM 88.0 °F 87.6 °F 60.1 °F 39% 29.99 in 10.0 mi Variable 3.5 mph - N/A   Partly Cloudy
3:52 PM 89.1 °F 88.8 °F 60.1 °F 38% 29.96 in 10.0 mi Variable 6.9 mph - N/A   Partly Cloudy
4:52 PM 89.1 °F 89.0 °F 61.0 °F 39% 29.94 in 10.0 mi WNW 6.9 mph - N/A   Scattered Clouds
5:52 PM 88.0 °F 87.6 °F 60.1 °F 39% 29.92 in 10.0 mi Variable 6.9 mph - N/A   Partly Cloudy
6:52 PM 86.0 °F 86.1 °F 61.0 °F 43% 29.92 in 10.0 mi SW 5.8 mph - N/A   Clear
7:52 PM 79.0 °F - 64.0 °F 60% 29.92 in 10.0 mi Calm Calm - N/A   Partly Cloudy
8:52 PM 71.1 °F - 64.9 °F 81% 29.93 in 10.0 mi Calm Calm - N/A   Scattered Clouds
9:52 PM 66.9 °F - 63.0 °F 87% 29.94 in 10.0 mi Calm Calm - N/A   Partly Cloudy
10:52 PM 64.0 °F - 62.1 °F 93% 29.96 in 8.0 mi Calm Calm - N/A   Clear
11:52 PM 61.0 °F - 59.0 °F 93% 29.96 in 5.0 mi Calm Calm - N/A   Clear